SAA280 FAOR-YPPH

Flight info

Callsign SAA280
Flight time N/A
Altitude 35000
Route EXOBI1A EXOBI DCT EGSOX DCT 31S040E 33S045E/N0464F370 35S051E DCT RAXES UT451 SUNKI DCT 38S082E/N0455F390 38S089E 37S096E 35S102E 34S109E DCT KAGMI
Aircraft A343/H-SDE2E3FGHIJ4J5M1RWXY/LB1D1

Departure

Time N/A
Airport O.R. Tambo International Airport (FAOR)

Arrival

Time 2026-05-04 06:53
Airport Perth International Airport (YPPH)
Time Latitude Longitude Altitude Speed Heading
2026-05-04 06:05 -33.40415 110.66781 39366 ft 495 kts 66°
2026-05-04 06:05 -33.37644 110.74334 39367 ft 495 kts 66°
2026-05-04 06:06 -33.34890 110.81825 39374 ft 495 kts 66°
2026-05-04 06:06 -33.32110 110.89368 39360 ft 495 kts 66°
2026-05-04 06:07 -33.29327 110.96902 39357 ft 495 kts 66°
2026-05-04 06:07 -33.26549 111.04405 39361 ft 495 kts 66°
2026-05-04 06:08 -33.23758 111.11927 39361 ft 495 kts 66°
2026-05-04 06:08 -33.20962 111.19446 39360 ft 495 kts 65°
2026-05-04 06:09 -33.18164 111.26951 39357 ft 494 kts 65°
2026-05-04 06:11 -33.06944 111.56884 39350 ft 494 kts 65°
2026-05-04 06:13 -32.95596 111.86890 39346 ft 499 kts 65°
2026-05-04 06:14 -32.85557 112.13213 39343 ft 499 kts 64°
2026-05-04 06:15 -32.82672 112.20742 39345 ft 499 kts 64°
2026-05-04 06:15 -32.79803 112.28212 39341 ft 499 kts 64°
2026-05-04 06:16 -32.76910 112.35725 39342 ft 499 kts 64°
2026-05-04 06:16 -32.74015 112.43230 39340 ft 499 kts 64°
2026-05-04 06:17 -32.71118 112.50724 39338 ft 499 kts 64°
2026-05-04 06:17 -32.68227 112.58183 39336 ft 499 kts 64°
2026-05-04 06:18 -32.65323 112.65662 39336 ft 499 kts 64°
2026-05-04 06:20 -32.53646 112.95566 39330 ft 500 kts 63°
2026-05-04 06:21 -32.46303 113.14242 39330 ft 501 kts 63°
2026-05-04 06:22 -32.43340 113.21749 39330 ft 501 kts 63°
2026-05-04 06:25 -32.22796 113.73364 35781 ft 484 kts 63°
2026-05-04 06:25 -32.21360 113.76942 35088 ft 480 kts 63°
2026-05-04 06:26 -32.19935 113.80493 34021 ft 474 kts 63°
2026-05-04 06:26 -32.18527 113.83996 32664 ft 473 kts 62°
2026-05-04 06:26 -32.17117 113.87498 31208 ft 472 kts 62°
2026-05-04 06:26 -32.15696 113.91024 29767 ft 476 kts 63°
2026-05-04 06:27 -32.10068 114.04961 27383 ft 463 kts 63°
2026-05-04 06:28 -32.08690 114.08366 26866 ft 458 kts 64°
2026-05-04 06:28 -32.07324 114.11737 26337 ft 455 kts 64°
2026-05-04 06:28 -32.05953 114.15115 25591 ft 457 kts 64°
2026-05-04 06:28 -32.04574 114.18511 24986 ft 456 kts 64°
2026-05-04 06:29 -32.03211 114.21864 24443 ft 453 kts 65°
2026-05-04 06:29 -32.01872 114.25156 23932 ft 450 kts 65°
2026-05-04 06:29 -32.00521 114.28476 23315 ft 446 kts 65°
2026-05-04 06:29 -31.99185 114.31755 22785 ft 441 kts 65°
2026-05-04 06:30 -31.97864 114.34994 22253 ft 437 kts 65°
2026-05-04 06:30 -31.96549 114.38216 21738 ft 432 kts 65°
2026-05-04 06:30 -31.95250 114.41394 21214 ft 428 kts 65°
2026-05-04 06:30 -31.93961 114.44546 20708 ft 425 kts 65°
2026-05-04 06:31 -31.92684 114.47665 20194 ft 421 kts 65°
2026-05-04 06:31 -31.91428 114.50730 19698 ft 418 kts 65°
2026-05-04 06:31 -31.90169 114.53803 19188 ft 415 kts 65°
2026-05-04 06:31 -31.88917 114.56852 18686 ft 412 kts 65°
2026-05-04 06:32 -31.87675 114.59878 18137 ft 408 kts 65°
2026-05-04 06:33 -31.79348 114.80086 14733 ft 378 kts 65°
2026-05-04 06:34 -31.78206 114.82849 14265 ft 375 kts 65°
2026-05-04 06:34 -31.77068 114.85599 13755 ft 371 kts 65°
2026-05-04 06:34 -31.75976 114.88326 13292 ft 366 kts 69°
2026-05-04 06:34 -31.75339 114.91177 12916 ft 357 kts 85°
2026-05-04 06:35 -31.75455 114.94057 12497 ft 352 kts 99°
2026-05-04 06:36 -31.78713 115.12991 10390 ft 307 kts 101°
2026-05-04 06:37 -31.79126 115.15417 10259 ft 298 kts 101°
2026-05-04 06:37 -31.79525 115.17773 10120 ft 289 kts 101°
2026-05-04 06:37 -31.79907 115.20026 9986 ft 281 kts 101°
2026-05-04 06:37 -31.80286 115.22271 9699 ft 280 kts 101°
2026-05-04 06:38 -31.80666 115.24520 9369 ft 279 kts 101°
2026-05-04 06:38 -31.81043 115.26756 9054 ft 278 kts 101°
2026-05-04 06:40 -31.84516 115.41777 6992 ft 266 kts 104°
2026-05-04 06:40 -31.84998 115.43843 6707 ft 265 kts 104°
2026-05-04 06:40 -31.85485 115.45933 6402 ft 263 kts 104°
2026-05-04 06:40 -31.85967 115.48012 6118 ft 263 kts 104°
2026-05-04 06:41 -31.86449 115.50073 5919 ft 259 kts 105°
2026-05-04 06:41 -31.87101 115.52075 5834 ft 263 kts 120°
2026-05-04 06:41 -31.88341 115.53632 5742 ft 263 kts 144°
2026-05-04 06:41 -31.89910 115.54717 5658 ft 266 kts 150°
2026-05-04 06:42 -31.91552 115.55747 5601 ft 267 kts 150°
2026-05-04 06:42 -31.93175 115.56769 5455 ft 263 kts 149°
2026-05-04 06:42 -31.94800 115.57802 5360 ft 265 kts 149°
2026-05-04 06:44 -32.06014 115.65008 4660 ft 260 kts 150°
2026-05-04 06:44 -32.07065 115.65686 4600 ft 258 kts 150°
2026-05-04 06:44 -32.08655 115.66711 4489 ft 260 kts 150°
2026-05-04 06:45 -32.10239 115.67733 4385 ft 258 kts 150°
2026-05-04 06:45 -32.12316 115.69091 4278 ft 259 kts 147°
2026-05-04 06:45 -32.13287 115.69956 4219 ft 258 kts 134°
2026-05-04 06:45 -32.14200 115.71679 4082 ft 248 kts 108°
2026-05-04 06:46 -32.14578 115.73633 3947 ft 239 kts 100°
2026-05-04 06:46 -32.14854 115.75531 3816 ft 231 kts 99°
2026-05-04 06:46 -32.15125 115.77405 3741 ft 233 kts 99°
2026-05-04 06:46 -32.15404 115.79291 3685 ft 233 kts 100°
2026-05-04 06:48 -32.14293 115.90614 3053 ft 209 kts 21°
2026-05-04 06:48 -32.12897 115.91021 2998 ft 202 kts 13°
2026-05-04 06:49 -32.11558 115.91370 2983 ft 191 kts 16°
2026-05-04 06:50 -32.02486 115.94031 1416 ft 171 kts 15°
2026-05-04 06:51 -32.01372 115.94358 1193 ft 160 kts 15°
2026-05-04 06:51 -32.00309 115.94669 967 ft 154 kts 15°
2026-05-04 06:51 -31.99296 115.94965 775 ft 152 kts 17°
2026-05-04 06:51 -31.98289 115.95260 579 ft 144 kts 15°
2026-05-04 06:52 -31.97339 115.95536 405 ft 140 kts 18°
2026-05-04 06:52 -31.96382 115.95813 226 ft 142 kts 19°
2026-05-04 06:52 -31.95418 115.96097 88 ft 139 kts 17°
2026-05-04 06:52 -31.94602 115.96339 64 ft 97 kts 14°
2026-05-04 06:53 -31.94122 115.96478 69 ft 47 kts 13°
2026-05-04 06:53 -31.93824 115.96566 70 ft 42 kts 14°
2026-05-04 06:53 -31.93564 115.96642 65 ft 23 kts 13°
2026-05-04 06:53 -31.93481 115.96706 60 ft 13 kts 59°
2026-05-04 06:54 -31.93433 115.96804 66 ft 14 kts 59°
2026-05-04 06:54 -31.93382 115.96905 63 ft 14 kts 59°
2026-05-04 06:54 -31.93355 115.96967 67 ft 5 kts 77°
2026-05-04 06:54 -31.93362 115.97004 67 ft 5 kts 112°
2026-05-04 06:55 -31.93388 115.97031 71 ft 5 kts 151°
2026-05-04 06:55 -31.93425 115.97058 64 ft 8 kts 148°
2026-05-04 06:55 -31.93481 115.97099 68 ft 11 kts 148°
2026-05-04 06:55 -31.93562 115.97157 64 ft 16 kts 149°
2026-05-04 06:56 -31.93667 115.97230 66 ft 18 kts 149°
2026-05-04 06:57 -31.94006 115.97373 64 ft 0 kts 162°